FW6366 Weather Reports


time (UTC)temp
C
wind
direction
speed
KPH
gust
KPH
rain 1hr
cm
rain 24hr
cm
rain mn
cm
humidity
%
barometer
mb
20260507045058 5 356 0.0 3.2 0.00 2.87 0.00 97 1009.3
20260507044616 6 0 0.0 3.2 0.00 2.87 0.00 97 1009.3
20260507044059 6 0 0.0 3.2 0.00 2.87 0.00 97 1009.3
20260507043559 5 0 0.0 3.2 0.00 2.87 0.00 97 1009.5
20260507043109 5 0 0.0 3.2 0.00 2.87 0.00 97 1009.5
20260507042600 5 0 0.0 0.0 0.00 2.87 0.00 97 1009.2
20260507042059 5 0 0.0 1.6 0.00 2.87 0.00 97 1009.0
20260507041607 6 0 0.0 1.6 0.03 2.87 0.00 97 1009.0
20260507041100 6 0 0.0 1.6 0.03 2.87 0.00 97 1008.7
20260507040600 6 0 0.0 1.6 0.03 2.87 0.00 97 1008.7
20260507035558 6 0 0.0 1.6 0.03 2.87 2.87 97 1008.8
20260507035058 6 0 0.0 0.0 0.03 2.87 2.87 97 1009.2
20260507034559 6 0 0.0 0.0 0.03 2.87 2.87 97 1009.1
20260507034059 6 0 0.0 3.2 0.03 2.87 2.87 97 1009.2
20260507033601 6 0 0.0 3.2 0.03 2.87 2.87 97 1009.1
20260507033059 6 321 0.0 1.6 0.03 2.87 2.87 97 1009.0
20260507032601 6 0 0.0 0.0 0.03 2.87 2.87 97 1009.0
20260507032059 6 0 0.0 0.0 0.03 2.87 2.87 97 1009.1
20260507031558 6 0 0.0 0.0 0.00 2.84 2.84 97 1009.3
20260507031101 6 0 0.0 0.0 0.00 2.84 2.84 97 1009.4
20260507030558 6 0 0.0 0.0 0.00 2.84 2.84 97 1009.3
20260507030100 6 0 0.0 0.0 0.00 2.84 2.84 97 1009.5
20260507025558 6 0 0.0 0.0 0.00 2.84 2.84 97 1009.5
20260507025100 6 0 0.0 0.0 0.03 2.84 2.84 97 1009.5
20260507024600 6 0 0.0 0.0 0.03 2.84 2.84 97 1009.5
20260507024058 6 0 0.0 0.0 0.03 2.84 2.84 97 1009.6
20260507023602 6 0 0.0 0.0 0.05 2.84 2.84 97 1009.6
20260507023110 6 0 0.0 0.0 0.05 2.84 2.84 97 1009.8
20260507022559 6 0 0.0 0.0 0.05 2.84 2.84 97 1009.7
20260507022100 6 0 0.0 0.0 0.05 2.84 2.84 97 1009.7
20260507021557 6 0 0.0 0.0 0.05 2.84 2.84 97 1009.7
20260507021058 6 0 0.0 0.0 0.08 2.84 2.84 97 1009.8
20260507020600 6 0 0.0 1.6 0.08 2.84 2.84 97 1009.8
20260507020104 6 0 0.0 1.6 0.08 2.84 2.84 97 1009.8
20260507015558 6 0 0.0 1.6 0.10 2.84 2.84 97 1009.7
20260507015058 6 0 0.0 0.0 0.08 2.82 2.82 96 1009.7
20260507014558 6 0 0.0 0.0 0.10 2.82 2.82 97 1009.8
20260507014058 6 0 0.0 0.0 0.10 2.82 2.82 96 1009.8
20260507013600 6 0 0.0 0.0 0.08 2.79 2.79 96 1009.8
20260507013057 6 0 0.0 0.0 0.08 2.79 2.79 96 1009.7
20260507012558 6 0 0.0 0.0 0.08 2.79 2.79 96 1009.6
20260507012058 6 0 0.0 0.0 0.08 2.79 2.79 96 1009.6
20260507011558 6 0 0.0 1.6 0.10 2.79 2.79 96 1009.5
20260507011057 6 0 0.0 1.6 0.08 2.77 2.77 96 1009.7
20260507010557 6 0 0.0 0.0 0.10 2.77 2.77 96 1009.6
20260507005559 6 0 0.0 1.6 0.13 2.77 2.74 96 1009.6
20260507005101 6 29 0.0 1.6 0.13 2.77 2.74 96 1009.4
20260507004601 6 0 0.0 1.6 0.13 2.74 2.72 96 1009.4
20260507004101 6 0 0.0 1.6 0.13 2.74 2.72 96 1009.5
20260507003558 6 0 0.0 1.6 0.13 2.74 2.72 96 1009.4
20260507003116 6 0 0.0 1.6 0.13 2.74 2.72 96 1009.1
20260507002558 6 0 0.0 0.0 0.15 2.74 2.72 96 1009.0
20260507002103 6 0 0.0 1.6 0.15 2.74 2.72 96 1008.9
20260507001616 6 0 0.0 3.2 0.13 2.72 2.67 96 1008.9
20260507001101 6 30 0.0 3.2 0.13 2.72 2.67 96 1008.8
20260507000606 6 354 0.0 3.2 0.10 2.67 2.64 96 1008.8
20260506235604 6 0 0.0 1.6 0.05 2.64 2.62 96 1008.6
20260506235101 6 0 0.0 3.2 0.05 2.64 2.62 96 1008.8
20260506234603 6 0 0.0 6.4 0.03 2.62 2.59 96 1008.7
20260506234059 6 0 0.0 6.4 0.05 2.62 2.59 96 1008.5
20260506233602 6 7 0.0 8.0 0.05 2.62 2.59 96 1008.3
20260506233102 6 0 1.6 8.0 0.05 2.62 2.59 96 1008.2
20260506232558 6 54 3.2 8.0 0.03 2.59 2.57 96 1008.0
20260506232058 6 61 1.6 11.3 0.05 2.59 2.57 96 1007.9
20260506231607 6 53 4.8 11.3 0.05 2.59 2.57 96 1007.9
20260506231102 6 49 0.0 6.4 0.08 2.59 2.57 96 1007.9
20260506230602 7 0 1.6 6.4 0.10 2.59 2.57 96 1007.6
20260506230115 7 41 1.6 6.4 0.10 2.59 2.57 96 1007.4
20260506225603 7 14 1.6 6.4 0.10 2.59 2.57 96 1007.4
20260506225103 7 0 0.0 8.0 0.10 2.59 2.57 96 1007.5
20260506224559 7 56 0.0 9.7 0.10 2.59 2.57 96 1007.5
20260506224102 7 0 1.6 11.3 0.08 2.57 2.54 96 1007.5
20260506223601 7 0 1.6 11.3 0.08 2.57 2.54 96 1007.4
20260506223104 7 29 1.6 11.3 0.08 2.57 2.54 96 1007.4
20260506222600 7 50 3.2 8.0 0.08 2.57 2.54 96 1007.4
20260506222101 7 4 0.0 6.4 0.05 2.54 2.51 96 1007.1
20260506221612 7 45 0.0 6.4 0.08 2.54 2.51 96 1007.2
20260506221058 7 0 1.6 6.4 0.05 2.51 2.49 96 1007.2
20260506220600 7 0 0.0 11.3 0.03 2.49 2.46 96 1007.2
20260506215602 7 59 3.2 12.9 0.03 2.49 2.46 96 1007.2
20260506215100 7 51 3.2 12.9 0.05 2.49 2.46 96 1007.0
20260506214559 7 340 1.6 6.4 0.05 2.49 2.46 96 1006.9
20260506214058 7 53 0.0 4.8 0.05 2.49 2.46 96 1006.9
20260506213559 7 0 0.0 6.4 0.05 2.49 2.46 96 1006.9
20260506213103 7 0 0.0 6.4 0.05 2.49 2.46 96 1006.7
20260506212600 7 15 0.0 6.4 0.05 2.49 2.46 96 1006.7
20260506212100 7 0 0.0 6.4 0.05 2.49 2.46 96 1006.6
20260506211559 7 19 0.0 4.8 0.03 2.46 2.44 96 1006.6
20260506211059 7 55 0.0 4.8 0.03 2.46 2.44 96 1006.6
20260506210600 7 354 0.0 4.8 0.03 2.46 2.44 96 1006.6
20260506210100 7 38 0.0 4.8 0.03 2.46 2.44 96 1006.6
20260506205603 7 338 0.0 4.8 0.05 2.84 2.44 96 1006.6
20260506205059 7 10 1.6 6.4 0.05 2.82 2.41 96 1006.6
20260506204558 7 66 0.0 6.4 0.08 2.82 2.41 96 1006.5
20260506204058 7 29 1.6 6.4 0.13 2.82 2.41 96 1006.7
20260506203559 7 0 0.0 9.7 0.15 2.82 2.41 96 1006.6
20260506203120 7 349 1.6 11.3 0.18 2.82 2.41 96 1006.7
20260506202559 7 0 1.6 11.3 0.20 2.82 2.41 96 1006.7
20260506202059 7 0 1.6 8.0 0.20 2.82 2.41 96 1006.6
20260506201600 7 360 0.0 9.7 0.23 2.82 2.41 96 1006.6
20260506201059 7 0 1.6 9.7 0.23 2.82 2.41 96 1006.6
20260506200604 7 38 3.2 9.7 0.25 2.82 2.41 96 1006.7
20260506195559 7 53 1.6 9.7 0.30 2.79 2.39 96 1006.8
20260506195059 7 0 0.0 9.7 0.30 2.77 2.36 96 1006.8
20260506194601 7 0 1.6 9.7 0.33 2.74 2.34 96 1006.8
20260506194059 7 37 1.6 9.7 0.33 2.67 2.29 96 1006.7
20260506193559 7 310 1.6 11.3 0.33 2.64 2.26 96 1006.7
20260506193106 7 72 1.6 12.9 0.33 2.64 2.24 96 1006.9
20260506192559 7 37 8.0 12.9 0.30 2.62 2.21 96 1006.6
20260506192059 7 62 1.6 12.9 0.33 2.62 2.21 96 1006.7
20260506191559 7 31 1.6 11.3 0.33 2.59 2.18 96 1006.7
20260506191059 7 75 3.2 11.3 0.36 2.59 2.18 96 1006.7
20260506190602 7 47 3.2 12.9 0.36 2.57 2.16 96 1006.6
20260506190058 7 28 3.2 12.9 0.30 2.51 2.11 96 1006.7
20260506185602 7 60 4.8 11.3 0.28 2.49 2.08 96 1006.7
20260506185116 7 31 0.0 11.3 0.28 2.46 2.06 96 1006.8
20260506184600 7 349 3.2 12.9 0.25 2.41 2.01 96 1006.8
20260506184101 7 39 4.8 12.9 0.23 2.36 1.96 96 1006.7
20260506183604 7 25 3.2 9.7 0.25 2.34 1.93 96 1006.5
20260506183108 7 18 1.6 9.7 0.25 2.31 1.91 96 1006.6
20260506182559 7 0 4.8 9.7 0.30 2.31 1.91 96 1006.8
20260506182059 7 61 4.8 9.7 0.33 2.29 1.88 96 1006.7
20260506181604 7 75 1.6 8.0 0.33 2.26 1.85 96 1006.8
20260506181059 7 360 1.6 11.3 0.36 2.24 1.83 96 1006.8
20260506180559 7 333 1.6 11.3 0.36 2.21 1.80 96 1006.5
20260506180059 7 41 4.8 16.1 0.41 2.21 1.80 96 1006.6
20260506175559 7 360 3.2 16.1 0.46 2.21 1.80 96 1006.5
20260506175101 8 280 3.2 11.3 0.48 2.18 1.78 97 1006.6
20260506174559 8 4 3.2 11.3 0.48 2.16 1.75 96 1006.6
20260506174059 8 346 3.2 9.7 0.48 2.13 1.73 96 1006.5
20260506173559 8 355 1.6 9.7 0.46 2.08 1.68 96 1006.6
20260506173109 8 63 1.6 9.7 0.46 2.06 1.65 96 1006.8
20260506172603 8 354 1.6 11.3 0.43 2.01 1.60 96 1006.9
20260506172058 8 360 3.2 11.3 0.41 1.96 1.55 96 1007.0
20260506171601 8 347 3.2 11.3 0.41 1.93 1.52 96 1007.1
20260506171101 8 6 3.2 11.3 0.38 1.88 1.47 96 1007.3
20260506170558 8 321 3.2 9.7 0.38 1.85 1.45 96 1007.3
20260506170109 8 0 1.6 11.3 0.36 1.80 1.40 96 1007.2
20260506165559 8 46 4.8 11.3 0.36 1.75 1.32 96 1007.2
20260506165101 9 335 3.2 8.0 0.33 1.70 1.30 96 1007.2
20260506164626 9 6 3.2 9.7 0.36 1.68 1.27 96 1007.1
20260506164059 9 0 1.6 9.7 0.36 1.65 1.24 96 1007.1
20260506163600 9 13 3.2 6.4 0.36 1.63 1.22 97 1007.2
20260506163111 9 12 1.6 12.9 0.38 1.60 1.19 97 1007.3
20260506162558 9 58 0.0 12.9 0.38 1.57 1.17 97 1007.3
20260506162059 9 22 4.8 12.9 0.38 1.55 1.14 96 1007.1
20260506161601 9 338 1.6 8.0 0.41 1.52 1.12 96 1007.2
20260506161102 10 0 0.0 12.9 0.41 1.47 1.09 96 1007.3
20260506160601 9 0 1.6 12.9 0.41 1.47 1.07 96 1007.3
20260506160122 10 58 4.8 9.7 0.41 1.45 1.04 96 1007.4
20260506155558 10 24 1.6 8.0 0.38 1.40 0.99 97 1007.6
20260506155100 10 34 1.6 8.0 0.38 1.37 0.97 97 1007.4
20260506154600 10 61 1.6 11.3 0.36 1.32 0.91 96 1007.4
20260506154058 10 0 0.0 11.3 0.36 1.30 0.89 96 1007.4
20260506153603 10 1 1.6 11.3 0.36 1.27 0.86 96 1007.5
20260506153101 10 8 3.2 9.7 0.33 1.22 0.81 96 1007.7
20260506152559 10 345 1.6 6.4 0.33 1.19 0.79 97 1007.7
20260506152107 10 63 1.6 12.9 0.33 1.17 0.76 97 1007.9
20260506151605 10 341 0.0 12.9 0.28 1.12 0.71 96 1008.0
20260506151058 10 4 3.2 11.3 0.25 1.09 0.69 96 1008.1
20260506150601 10 30 0.0 8.0 0.25 1.07 0.66 96 1008.1
20260506150108 10 11 3.2 9.7 0.25 1.04 0.64 96 1008.1
20260506145559 10 0 3.2 9.7 0.23 1.02 0.61 96 1008.3
20260506145102 11 19 4.8 9.7 0.23 0.99 0.58 96 1008.3
20260506144605 11 347 1.6 9.7 0.23 0.97 0.56 97 1008.2
20260506144102 11 353 3.2 9.7 0.23 0.94 0.53 97 1008.2
20260506143559 11 61 1.6 6.4 0.23 0.91 0.51 97 1008.2
20260506143100 11 51 1.6 8.0 0.20 0.89 0.48 97 1008.1
20260506142602 11 56 0.0 8.0 0.20 0.86 0.46 97 1008.1
20260506142101 11 0 1.6 8.0 0.18 0.84 0.43 96 1008.3
20260506141600 12 0 0.0 6.4 0.18 0.84 0.43 97 1008.1
20260506141059 12 71 0.0 11.3 0.20 0.84 0.43 97 1008.0
20260506140601 12 1 3.2 11.3 0.18 0.81 0.41 97 1008.1
20260506140059 12 58 3.2 11.3 0.18 0.79 0.38 97 1008.1
20260506135600 12 0 0.0 8.0 0.18 0.79 0.38 97 1007.9
20260506135058 12 0 0.0 8.0 0.18 0.76 0.36 97 1007.9
20260506134601 12 356 1.6 8.0 0.15 0.74 0.33 97 1007.8
20260506134101 12 4 1.6 6.4 0.13 0.71 0.30 97 1007.9
20260506133559 12 37 0.0 6.4 0.13 0.69 0.28 97 1007.8
20260506133109 12 3 1.6 6.4 0.13 0.69 0.28 97 1007.6
20260506132600 12 0 0.0 4.8 0.10 0.66 0.25 97 1007.9
20260506132102 12 0 0.0 3.2 0.10 0.66 0.25 97 1007.9
20260506131615 12 309 0.0 4.8 0.10 0.66 0.25 97 1007.9
20260506131059 12 0 0.0 4.8 0.10 0.64 0.23 97 1007.9
20260506130558 12 59 0.0 6.4 0.10 0.64 0.23 97 1008.0
20260506130059 12 48 0.0 6.4 0.08 0.61 0.20 97 1008.1
20260506125557 12 58 0.0 6.4 0.08 0.61 0.20 97 1008.2
20260506125058 12 0 0.0 6.4 0.05 0.58 0.18 97 1008.3
20260506124556 12 348 0.0 4.8 0.05 0.58 0.18 97 1008.5
20260506124059 12 0 0.0 3.2 0.05 0.58 0.18 97 1008.4
20260506123558 12 0 0.0 3.2 0.03 0.56 0.15 97 1008.5
20260506123059 12 0 0.0 4.8 0.03 0.56 0.15 97 1008.6
20260506122559 12 349 1.6 4.8 0.03 0.56 0.15 97 1008.3
20260506122058 12 0 0.0 4.8 0.03 0.56 0.15 97 1008.2
20260506121601 12 0 0.0 8.0 0.03 0.56 0.15 97 1008.1
20260506121058 12 360 3.2 8.0 0.00 0.53 0.13 97 1007.9
20260506120558 12 53 3.2 6.4 0.00 0.53 0.13 97 1008.0
20260506120111 12 44 0.0 4.8 0.00 0.53 0.13 97 1008.2
20260506115558 12 24 3.2 4.8 0.00 0.53 0.13 97 1008.2
20260506115059 12 0 0.0 4.8 0.00 0.53 0.13 97 1008.0
20260506114558 12 0 0.0 1.6 0.00 0.53 0.13 97 1008.1
20260506114101 12 0 0.0 1.6 0.00 0.53 0.13 97 1008.1
20260506113557 12 0 0.0 1.6 0.00 0.53 0.13 97 1008.0
20260506113057 12 0 0.0 1.6 0.00 0.53 0.13 97 1007.8
20260506112600 12 0 0.0 1.6 0.00 0.53 0.13 97 1007.9
20260506112101 12 0 0.0 1.6 0.00 0.53 0.13 97 1008.2
20260506111557 12 165 0.0 3.2 0.00 0.53 0.13 97 1008.1
20260506111059 12 0 0.0 3.2 0.00 0.53 0.13 97 1008.2
20260506110558 12 128 1.6 3.2 0.00 0.53 0.13 97 1008.0
20260506110113 12 0 0.0 1.6 0.00 0.53 0.13 97 1007.9
20260506105558 12 0 0.0 3.2 0.00 0.53 0.13 97 1007.8
20260506105057 12 0 0.0 3.2 0.00 0.53 0.13 97 1007.8
20260506104613 12 96 0.0 3.2 0.00 0.53 0.13 97 1007.6
20260506104100 12 0 0.0 1.6 0.00 0.53 0.13 97 1007.8
20260506103601 12 0 0.0 1.6 0.00 0.53 0.13 97 1007.9
20260506103101 12 0 0.0 3.2 0.00 0.53 0.13 97 1007.9
20260506102558 12 0 0.0 3.2 0.00 0.53 0.13 97 1007.8
20260506102059 12 0 0.0 1.6 0.00 0.53 0.13 97 1008.0
20260506101558 12 47 0.0 1.6 0.00 0.53 0.13 97 1007.9
20260506101100 12 0 0.0 0.0 0.00 0.53 0.13 97 1007.7
20260506100606 12 0 0.0 3.2 0.00 0.53 0.13 97 1007.7
20260506100113 12 0 0.0 3.2 0.00 0.53 0.13 97 1007.8
20260506095601 12 0 0.0 1.6 0.00 0.53 0.13 97 1007.8
20260506095059 12 0 0.0 1.6 0.00 0.53 0.13 97 1007.8
20260506094604 12 290 0.0 1.6 0.00 0.53 0.13 97 1007.9
20260506094058 12 0 0.0 1.6 0.00 0.53 0.13 97 1007.8
20260506093603 12 0 0.0 1.6 0.00 0.53 0.13 97 1007.9
20260506093102 12 0 0.0 1.6 0.00 0.53 0.13 97 1008.0
20260506092559 12 0 0.0 1.6 0.00 0.53 0.13 97 1007.9
20260506092059 12 0 0.0 1.6 0.00 0.53 0.13 97 1007.9
20260506091607 12 0 0.0 0.0 0.00 0.53 0.13 97 1007.9
20260506091059 12 0 0.0 0.0 0.00 0.53 0.13 97 1007.9
20260506090602 12 0 0.0 1.6 0.00 0.53 0.13 97 1007.9
20260506090104 12 0 0.0 3.2 0.00 0.53 0.13 97 1008.1
20260506085558 12 0 0.0 3.2 0.00 0.53 0.13 97 1008.1
20260506085059 12 311 0.0 3.2 0.00 0.53 0.13 97 1008.2
20260506084636 12 0 0.0 1.6 0.00 0.53 0.13 97 1008.2
20260506084059 12 0 0.0 3.2 0.00 0.53 0.13 97 1008.3
20260506083559 12 0 0.0 4.8 0.00 0.53 0.13 97 1008.5
20260506083101 12 321 1.6 4.8 0.00 0.53 0.13 97 1008.5
20260506082602 12 323 0.0 1.6 0.00 0.53 0.13 97 1008.3
20260506082058 12 0 0.0 1.6 0.00 0.53 0.13 97 1008.4
20260506081602 12 0 0.0 0.0 0.00 0.53 0.13 97 1008.7
20260506081059 12 0 0.0 1.6 0.00 0.53 0.13 97 1008.8
20260506080604 12 0 0.0 1.6 0.00 0.53 0.13 97 1008.7
20260506080105 12 0 0.0 3.2 0.00 0.53 0.13 97 1008.8
20260506073101 12 0 0.0 0.0 0.00 0.53 0.13 97 1008.6
20260506072559 12 0 0.0 1.6 0.00 0.53 0.13 97 1008.5
20260506072059 12 0 0.0 1.6 0.00 0.53 0.13 97 1008.7
20260506071600 12 0 0.0 1.6 0.00 0.53 0.13 97 1008.5
20260506071059 12 0 0.0 1.6 0.00 0.53 0.13 97 1008.6
20260506070558 13 0 0.0 0.0 0.00 0.53 0.13 97 1008.7
20260506062058 13 0 0.0 1.6 0.00 0.53 0.13 97 1009.0
20260506061604 13 0 0.0 0.0 0.00 0.53 0.13 97 1008.7
20260506061059 13 0 0.0 0.0 0.00 0.53 0.13 97 1008.9
20260506060559 13 0 0.0 0.0 0.00 0.53 0.13 97 1009.0
20260506051058 13 46 1.6 4.8 0.13 0.53 0.13 97 1009.7
20260506050559 13 0 0.0 3.2 0.13 0.53 0.13 96 1009.4